Regional Weather Roundup
Issued by NWS

Home | Current Version | Previous Version | Text Only | Print | Product List | Glossary On
Versions: 1 2 3 4 5 6 7 8 9 10 11 12 13 14 15 16 17 18 19 20 21 22 23 24 25 26 27 28 29 30 31 32 33 34 35 36 37 38 39 40 41 42 43 44 45 46 47 48 49 50
000
ASUS43 KLMK 230510
RWRKY
KENTUCKY REGIONAL WEATHER ROUNDUP
NATIONAL WEATHER SERVICE LOUISVILLE KY
100 AM EDT SAT SEP 23 2017

NOTE "FAIR" INDICATES FEW OR NO CLOUDS BELOW 12,000 FEET
WITH NO SIGNIFICANT WEATHER AND/OR OBSTRUCTIONS TO VISIBILITY.

KYZ001>023-026-027-061>063-070>075-230600-
WESTERN AND SOUTH CENTRAL KENTUCKY

CITY           SKY/WX    TMP DP  RH WIND       PRES   REMARKS
PADUCAH        CLEAR     71  66  84 CALM      30.00F
HENDERSON      CLEAR     67  66  97 CALM      30.03S
OWENSBORO      CLEAR     72  69  90 CALM      30.03F
HOPKINSVILLE   CLEAR     72  67  83 CALM      30.02S
BOWLING GREEN  CLEAR     71  68  90 CALM      30.04S
GLASGOW        CLEAR     71  68  92 NE6       30.04F
$$

KYZ024-025-028>034-038-045-046-053-230600-
NORTH CENTRAL KENTUCKY

CITY           SKY/WX    TMP DP  RH WIND       PRES   REMARKS
LOUISVILLE/SDF CLEAR     77  66  68 CALM      30.05S
LOUISVILLE/LOU CLEAR     71  69  93 CALM      30.06R
FORT KNOX      CLEAR     69  67  93 CALM      30.04S
$$

KYZ035>037-039>044-047>052-055>060-089>105-230600-
NORTHEAST KENTUCKY

CITY           SKY/WX    TMP DP  RH WIND       PRES   REMARKS
LEXINGTON      CLEAR     70  64  81 SE3       30.08S
COVINGTON      CLEAR     72  67  84 CALM      30.08R
FRANKFORT      CLEAR     66  63  90 CALM      30.06S
$$

KYZ054-064>069-076>088-106>120-230600-
SOUTHEAST KENTUCKY

CITY           SKY/WX    TMP DP  RH WIND       PRES   REMARKS
JACKSON        CLEAR     69  64  84 CALM      30.09S
LONDON         CLEAR     65  63  93 CALM      30.08S
SOMERSET       CLEAR     64  64 100 CALM      30.08S
MIDDLESBORO    CLEAR     65  65 100 CALM      30.10S
MONTICELLO     CLEAR     63  62  97 NW9       30.08F
$$





USA.gov is the U.S. government's official web portal to all federal, state and local government web resources and services.